星链-31269 (STARLINK-31269 )

导读 | 星芒AI

STARLINK-31269 是 SpaceX Starlink 卫星互联网项目中的一颗低轨道卫星,属于第二代 Starlink 卫星星座的一部分。该卫星于2023年发射,旨在为全球用户提供高速、低延迟的宽带互联网服务。它运行在约550公里高的近地轨道,配备先进通信设备,支持Ka/Ku波段传输。Starlink 项目致力于构建覆盖全球的卫星网络,尤其服务于偏远地区,提升全球网络接入能力。STARLINK-31269 的部署有助于增强网络容量与稳定性。

基本信息
目录编号:
58844
目录名称:
STARLINK-31269
国际标识:
2024-017U
轨道中心:
EARTH
卫星名称:
星链-31269
卫星全名:
星链-31269 (STARLINK-31269 )
卫星状态:
在轨 (已飞行649 天)
发射日期:
2024-01-24 UTC
国别 :
美国 (US)
星等 :
--
轨道信息
数据来源 国际轨道数据
星历时间: 2025-11-02T05:33:33+0800
1天前
查看轨道信息
半长轴: 6853.394km
偏心率: 0.0001289
轨道倾角: 53.159°
近地点辐角 100.751°
升交点赤经 168.028°
平近点角 259.363°
近地点: 474.375km
远地点: 476.143km
周期: 94.106分钟
每日圈数: 15.301862
详细信息
固有亮度:
5
最大亮度:
0.3
卫星平台:
Starlink v2.0 mini
覆盖范围:
全球
运营商:
太空探索技术公司
运营商所在国:
美国
制造商(研发单位):
太空探索技术公司
制造商所在国:
美国
使用方式:
暂无
卫星简介
星链(Starlink)计划是由太空探索技术公司(SpaceX)提出的一个巨型低轨卫星互联网星座项目,计划在2019年至2024年间在太空搭建由约1.2万颗卫星组成的“星链”网络,其中1584颗将部署在地球上空550千米处的近地轨道,并从2020年开始工作。该卫星仍在工作。
2D轨道图
3D轨道图
轨道高度分析图
轨道倾角分析图
轨道综合分析图
查看轨道综合分析图